Dodge City, KS

9:45 AM CDT on April 28, 2017 (GMT -0500)
Dodge City Regional

Weather History for KDDC - December, 2011

Change the Weather History Date:

Sunday, December 4, 2011

  Actual Average Record
Temperature  
Mean Temperature 27 °F -  
Max Temperature 35 °F 51 °F 74 °F (1965)
Min Temperature 19 °F 26 °F 1 °F (1909)
Degree Days  
Heating Degree Days 38    
Moisture  
Dew Point 22 °F    
Average Humidity 79    
Maximum Humidity 89    
Minimum Humidity 64    
Precipitation  
Precipitation 0.00 in - - ()
Sea Level Pressure  
Sea Level Pressure 30.23 in    
Wind  
Wind Speed 7 mph (WNW)    
Max Wind Speed 16 mph    
Max Gust Speed 23 mph    
Visibility 10 miles    
Events      
Averages and records for this station are not official NWS values.
T = Trace of Precipitation, MM = Missing Value Source: NWS Daily Summary

Daily Weather History Graph

Daily Weather History Graph

Search for Another Location

Airport or City:

Trip Planner

Search our weather history database for the weather conditions in past years. The results will help you decide how hot, cold, wet, or windy it might be!

Date:

Astronomy

Dec. 04, 2011 Rise Set
Actual Time 7:39 AM CST 5:20 PM CST
Civil Twilight 7:10 AM CST 5:49 PM CST
Nautical Twilight 6:37 AM CST 6:22 PM CST
Astronomical Twilight 6:05 AM CST 6:54 PM CST
Moon 1:47 PM CST (12/4) 2:10 AM CST (12/4)
Length of Visible Light 10h 39m
Length of Day
9h 41m
Waxing Gibbous, 72% of the Moon is Illuminated
Dec 4
Waxing Gibbous
Dec 10
Full
Dec 17
Last Quarter
Dec 24
New
Jan 1
First Quarter

Hourly Weather History & Observations

Time (CST) Temp. Windchill Dew Point Humidity Pressure Visibility Wind Dir Wind Speed Gust Speed Precip Events Conditions
12:52 AM 26.1 °F 17.6 °F 21.9 °F 84% 30.20 in 10.0 mi WNW 8.1 mph - N/A   Clear
1:52 AM 24.1 °F 15.2 °F 21.0 °F 88% 30.19 in 10.0 mi NW 8.1 mph - N/A   Clear
2:52 AM 23.0 °F 13.9 °F 19.9 °F 88% 30.21 in 10.0 mi WNW 8.1 mph - N/A   Clear
3:52 AM 21.9 °F 13.4 °F 19.0 °F 89% 30.19 in 10.0 mi WNW 6.9 mph - N/A   Clear
4:52 AM 21.9 °F 15.7 °F 19.0 °F 89% 30.18 in 10.0 mi NW 4.6 mph - N/A   Clear
5:52 AM 21.0 °F - 18.0 °F 88% 30.19 in 10.0 mi Calm Calm - N/A   Clear
6:52 AM 21.0 °F 16.2 °F 17.1 °F 85% 30.20 in 10.0 mi WSW 3.5 mph - N/A   Clear
7:52 AM 19.9 °F 14.9 °F 17.1 °F 89% 30.23 in 10.0 mi SW 3.5 mph - N/A   Clear
8:52 AM 24.1 °F 16.0 °F 19.9 °F 84% 30.25 in 10.0 mi West 6.9 mph - N/A   Clear
9:52 AM 28.0 °F 20.0 °F 21.0 °F 75% 30.27 in 10.0 mi West 8.1 mph - N/A   Clear
10:52 AM 30.0 °F 23.2 °F 21.9 °F 72% 30.26 in 10.0 mi WSW 6.9 mph - N/A   Clear
11:52 AM 32.0 °F 24.8 °F 24.1 °F 73% 30.24 in 10.0 mi WSW 8.1 mph - N/A   Clear
12:52 PM 34.0 °F 27.2 °F 24.1 °F 67% 30.22 in 10.0 mi West 8.1 mph - N/A   Scattered Clouds
1:05 PM 33.8 °F 25.8 °F 23.0 °F 65% 30.16 in 10.0 mi West 10.4 mph - N/A   Mostly Cloudy
1:15 PM 33.8 °F 27.0 °F 24.8 °F 70% 30.16 in 10.0 mi WSW 8.1 mph - N/A   Scattered Clouds
1:52 PM 35.1 °F 27.4 °F 24.1 °F 64% 30.21 in 10.0 mi WNW 10.4 mph - N/A   Partly Cloudy
2:52 PM 35.1 °F 25.5 °F 25.0 °F 67% 30.21 in 10.0 mi NW 15.0 mph 23.0 mph N/A   Partly Cloudy
3:52 PM 35.1 °F 27.4 °F 24.1 °F 64% 30.22 in 10.0 mi WNW 10.4 mph - N/A   Clear
4:52 PM 32.0 °F 24.8 °F 24.1 °F 73% 30.24 in 10.0 mi NW 8.1 mph - N/A   Mostly Cloudy
5:52 PM 30.9 °F 25.2 °F 24.1 °F 76% 30.26 in 10.0 mi NNW 5.8 mph - N/A   Overcast
6:52 PM 28.4 °F 23.3 °F 24.8 °F 86% 30.20 in 10.0 mi NNW 4.6 mph - N/A   Overcast
7:52 PM 26.1 °F 20.5 °F 23.0 °F 88% 30.32 in 10.0 mi NNW 4.6 mph - N/A   Mostly Cloudy
8:52 PM 26.6 °F 20.0 °F 23.0 °F 86% 30.24 in 10.0 mi NNW 5.8 mph - N/A   Overcast
9:52 PM 28.0 °F 20.0 °F 23.0 °F 81% 30.33 in 10.0 mi North 8.1 mph - N/A   Overcast
10:52 PM 27.0 °F 16.7 °F 21.9 °F 81% 30.35 in 10.0 mi North 11.5 mph - N/A   Overcast
11:52 PM 26.1 °F 13.6 °F 19.0 °F 75% 30.35 in 10.0 mi North 16.1 mph - N/A   Overcast